TimeCST,TemperatureF,Dew PointF,Humidity,Sea Level PressureIn,VisibilityMPH,Wind Direction,Wind SpeedMPH,Gust SpeedMPH,PrecipitationIn,Events,Conditions,WindDirDegrees,DateUTC
12:56 AM,50.0,43.0,77,30.20,10.0,ENE,10.4,-,N/A,,Clear,70,2013-01-08 06:56:00
1:56 AM,50.0,42.1,74,30.20,10.0,NE,6.9,-,N/A,,Clear,50,2013-01-08 07:56:00
2:56 AM,50.0,42.1,74,30.19,10.0,ENE,10.4,-,N/A,,Overcast,60,2013-01-08 08:56:00
3:10 AM,50.0,42.8,76,30.19,10.0,ENE,10.4,-,N/A,,Overcast,70,2013-01-08 09:10:00
3:56 AM,50.0,43.0,77,30.18,10.0,ENE,11.5,-,N/A,,Overcast,70,2013-01-08 09:56:00
4:20 AM,50.0,42.8,76,30.18,10.0,ENE,10.4,-,N/A,,Overcast,60,2013-01-08 10:20:00
4:56 AM,50.0,44.1,80,30.19,10.0,ENE,10.4,-,N/A,,Overcast,70,2013-01-08 10:56:00
5:18 AM,50.0,44.6,82,30.19,10.0,ENE,8.1,-,N/A,,Overcast,60,2013-01-08 11:18:00
5:56 AM,51.1,45.0,80,30.20,10.0,ENE,9.2,-,N/A,,Overcast,60,2013-01-08 11:56:00
6:56 AM,51.1,46.0,83,30.23,10.0,ENE,10.4,-,N/A,,Overcast,70,2013-01-08 12:56:00
7:56 AM,52.0,46.9,83,30.24,10.0,ENE,11.5,-,N/A,,Overcast,70,2013-01-08 13:56:00
8:56 AM,55.0,48.0,77,30.26,10.0,ENE,8.1,-,N/A,,Overcast,70,2013-01-08 14:56:00
9:38 AM,55.4,48.2,77,30.26,10.0,ENE,9.2,-,N/A,,Overcast,60,2013-01-08 15:38:00
9:56 AM,55.0,48.9,80,30.27,10.0,ENE,9.2,-,N/A,,Overcast,70,2013-01-08 15:56:00
10:56 AM,57.0,51.1,81,30.25,10.0,ENE,10.4,-,N/A,,Overcast,70,2013-01-08 16:56:00
11:56 AM,59.0,52.0,78,30.23,10.0,ENE,10.4,-,N/A,,Overcast,60,2013-01-08 17:56:00
12:56 PM,61.0,53.1,75,30.19,10.0,ENE,10.4,-,N/A,,Overcast,70,2013-01-08 18:56:00
1:12 PM,62.6,53.6,72,30.19,10.0,ENE,10.4,-,N/A,,Mostly Cloudy,70,2013-01-08 19:12:00
1:56 PM,62.1,54.0,75,30.18,10.0,ENE,10.4,-,N/A,,Overcast,70,2013-01-08 19:56:00
2:56 PM,62.1,55.0,78,30.18,10.0,East,9.2,-,N/A,,Mostly Cloudy,80,2013-01-08 20:56:00
3:56 PM,60.1,55.9,86,30.19,10.0,ENE,8.1,-,N/A,,Mostly Cloudy,70,2013-01-08 21:56:00
4:14 PM,60.8,55.4,82,30.17,10.0,ENE,6.9,-,N/A,,Overcast,70,2013-01-08 22:14:00
4:56 PM,60.1,57.0,90,30.17,10.0,ENE,5.8,-,N/A,,Overcast,60,2013-01-08 22:56:00
5:03 PM,60.8,57.2,88,30.17,10.0,East,5.8,-,N/A,,Overcast,80,2013-01-08 23:03:00
5:56 PM,60.1,57.0,90,30.18,10.0,ENE,4.6,-,N/A,,Overcast,60,2013-01-08 23:56:00
6:48 PM,60.8,57.2,88,30.18,8.0,ENE,8.1,-,N/A,,Overcast,60,2013-01-09 00:48:00
6:56 PM,60.1,57.0,90,30.19,10.0,ENE,8.1,-,N/A,,Overcast,60,2013-01-09 00:56:00
7:56 PM,61.0,54.0,78,30.18,10.0,ENE,8.1,-,N/A,,Overcast,70,2013-01-09 01:56:00
8:56 PM,60.1,54.0,80,30.17,10.0,ENE,8.1,-,N/A,,Mostly Cloudy,70,2013-01-09 02:56:00
9:56 PM,60.1,55.0,83,30.19,10.0,ENE,5.8,-,N/A,,Overcast,70,2013-01-09 03:56:00
10:56 PM,62.1,55.9,80,30.19,10.0,East,9.2,-,N/A,,Overcast,80,2013-01-09 04:56:00
11:34 PM,62.6,55.4,77,30.19,10.0,East,8.1,-,N/A,,Overcast,80,2013-01-09 05:34:00
11:48 PM,62.6,57.2,82,30.18,10.0,East,10.4,-,N/A,,Overcast,80,2013-01-09 05:48:00
11:56 PM,62.1,57.0,84,30.19,10.0,East,8.1,-,N/A,,Overcast,80,2013-01-09 05:56:00